Flag for U.S.A. Weather past 2 weeks in San Jose, California, U.S.A.

Now
55 °F

Passing clouds.


Feels Like: 52 °F
Forecast: 45 / 67 °F
Wind: 10 mph from West

Location: San Jose International Airport

Current Time: Apr 1, 2015 at 8:33:45 PM

Latest Report: Apr 1, 2015 at 7:53 PM


Visibility: 10 mi

Pressure: 30.09 "Hg

Humidity: 51%

Dew point: 37 °F

Location of San JoseLocation

Historic Weather in San Jose — Graph

°F

San Jose temperature yesterday

Maximum temperature yesterday: 68 °F (at 1:53 PM)
Minimum temperature yesterday: 50 °F (at 5:53 AM)
Average temperature yesterday: 59 °F

Past Weeks' High & Low Weather Summary

 TemperatureHumidityPressure
High85 °F (Mar 26, 3:53 PM)94% (Mar 27, 6:57 AM)30.31 "Hg (Mar 27, 6:57 AM)
Low47 °F (Apr 1, 6:53 AM)26% (Mar 19, 4:53 PM)29.98 "Hg (Mar 19, 6:53 PM)
Average60 °F63%30.13 "Hg
* Reported Mar 17 6:53 PM — Apr 1 6:53 PM, San Jose, Weather by CustomWeather, © 2015

Note: Actual official high and low records may vary slightly from our data, if they occured in-between our weather recording intervals... More about our weather records

Advertising

San Jose weather history for previous 24 hours

 ConditionsComfort  
Time TempWeatherWind HumidityBarometerVisibility
6:53 PM
Wed, Apr 1
58 °FPassing clouds.9 mph43%30.09 "Hg10 mi
5:53 PM62 °FPassing clouds.16 mph46%30.08 "Hg10 mi
4:53 PM62 °FScattered clouds.22 mph44%30.09 "Hg10 mi
3:53 PM64 °FBroken clouds.18 mph41%30.10 "Hg10 mi
2:53 PM64 °FBroken clouds.13 mph38%30.11 "Hg10 mi
1:53 PM64 °FBroken clouds.15 mph34%30.13 "Hg10 mi
12:53 PM63 °FBroken clouds.12 mph33%30.15 "Hg10 mi
11:53 AM61 °FBroken clouds.7 mph36%30.16 "Hg10 mi
10:53 AM59 °FBroken clouds.9 mph48%30.18 "Hg10 mi
9:53 AM57 °FScattered clouds.6 mph51%30.19 "Hg10 mi
8:53 AM54 °FScattered clouds.7 mph57%30.19 "Hg10 mi
7:53 AM50 °FBroken clouds.No wind61%30.19 "Hg10 mi
6:53 AM47 °FClear.No wind71%30.18 "Hg10 mi
5:53 AM51 °FClear.3 mph56%30.17 "Hg10 mi
4:53 AM50 °FClear.No wind59%30.17 "Hg10 mi
3:53 AM51 °FClear.No wind56%30.17 "Hg10 mi
2:53 AM50 °FClear.5 mph61%30.19 "Hg10 mi
1:53 AM51 °FClear.5 mph61%30.20 "Hg10 mi
12:53 AM53 °FClear.6 mph59%30.20 "Hg10 mi
11:53 PM
Tue, Mar 31
55 °FClear.No wind55%30.19 "Hg10 mi
10:53 PM54 °FClear.6 mph57%30.19 "Hg10 mi
9:53 PM55 °FClear.9 mph57%30.18 "Hg10 mi
8:53 PM56 °FPassing clouds.9 mph55%30.16 "Hg10 mi
Weather by CustomWeather, © 2015

See weather overviewHow to use our weather pages